Location: Laverne
(36.7100°N, 99.8930°W)
Time: 01:36:55
(UTC-06:00)

Daily predictions for brighter satellites

Satellite Brightness Start Highest point End
(mag) Time Altitude Azimuth Time Altitude Azimuth Time Altitude Azimuth
Cosmos 1943 Rocket 4.4 03:56:40 19° NNE 03:56:40 19° NNE 03:58:07 10° NNE
CZ-4C R/B 4.0 04:00:42 27° ENE 04:00:42 27° ENE 04:03:33 10° NE
Lacrosse 5 4.4 04:04:44 15° NNE 04:04:44 15° NNE 04:05:39 10° NNE
ADEOS II 4.0 03:59:24 10° NNE 04:02:05 26° NE 04:02:05 26° NE
CZ-4B R/B 4.3 04:14:50 10° NNE 04:18:49 43° NE 04:18:49 43° NE
Nadezhda 2 Rocket 4.4 04:34:15 10° N 04:44:42 21° S 04:46:32 10° S
Cosmos 1420 Rocket 4.5 04:43:53 56° ESE 04:43:53 56° ESE 04:48:55 10° NNE
USA 234 3.4 04:40:21 10° NE 04:46:51 65° SE 04:48:26 50° S
Cosmos 1656 Rocket 3.8 04:51:34 66° N 04:51:34 66° N 04:56:29 10° NNE
GEOS 3 Rocket 4.5 04:49:12 10° ESE 04:54:00 45° NE 04:57:12 20° NNW
ATLAS 3B R/B 3.4 04:54:41 17° S 05:00:28 57° ESE 05:07:38 10° NE
Meteor 1-14 Rocket 4.3 04:58:34 10° N 05:04:21 76° E 05:09:58 10° SSE
Cosmos 2369 Rocket 4.5 05:08:20 11° NNW 05:08:20 11° NNW 05:08:34 10° NNW
Tiangong 1 3.7 05:12:02 16° NE 05:12:02 16° NE 05:12:55 10° NE
Okean-O 2.9 05:06:04 10° NNE 05:10:30 67° ESE 05:12:14 35° S
Cosmos 2219 3.5 05:04:55 10° NNW 05:10:34 67° ENE 05:16:09 10° SSE
Meteor 2-10 Rocket 3.8 05:12:23 49° NNW 05:12:23 49° NNW 05:16:23 10° N
Cosmos 1452 Rocket 4.2 05:13:33 38° NNW 05:13:33 38° NNW 05:17:21 10° N
Meteor 1-26 Rocket 4.1 05:12:42 61° W 05:12:45 61° W 05:18:18 10° N
Delta 2 Rocket 3.5 05:16:35 73° SSW 05:16:47 75° S 05:21:50 10° E
Cosmos 1607 4.1 05:13:17 23° SSW 05:17:10 70° ESE 05:23:18 10° NE
Thor Agena Rocket 4.0 05:12:20 10° SSE 05:17:27 61° ENE 05:22:32 10° N
Meteor 1-31 Rocket 2.8 05:13:37 10° NNE 05:17:22 77° ENE 05:17:22 77° ENE
Okean 2 Rocket 3.1 05:13:32 10° N 05:17:57 75° E 05:22:20 10° SSE
Meteor 1-25 Rocket 4.5 05:13:52 10° N 05:19:43 73° E 05:25:31 10° SSE
Cosmos 1244 Rocket 4.4 05:15:34 10° NNW 05:21:41 62° W 05:27:43 10° S
ERS-2 4.5 05:19:58 10° N 05:20:38 15° N 05:20:38 15° N
Cosmos 1741 Rocket 4.3 05:22:10 10° NNW 05:27:25 69° ENE 05:32:38 10° SSE
SL-08 R/B 4.4 05:23:56 10° N 05:30:19 86° W 05:36:38 10° S
ATLAS 5 CENTAUR R/B 4.1 05:33:02 11° NNW 05:33:02 11° NNW 05:33:45 10° NNW
Cosmos 614 Rocket 3.8 05:28:38 10° NNW 05:33:46 81° WSW 05:38:54 10° SSE
Cosmos 1140 Rocket 3.4 05:28:54 10° NNW 05:34:04 60° WSW 05:39:11 10° S
Cosmos 1943 Rocket 4.0 05:38:13 14° NW 05:38:13 14° NW 05:40:07 10° NNW
Cosmos 2151 Rocket 4.3 05:33:38 10° N 05:38:04 57° E 05:42:26 10° SSE
ATLAS CENTAUR R/B 4.4 05:37:39 29° W 05:41:00 38° SW 05:58:06 10° S
ADEOS II 3.2 05:39:29 10° NNW 05:43:03 25° NW 05:43:03 25° NW
COSMO-SKYMED 1 3.3 05:39:46 10° SSE 05:44:00 56° ENE 05:48:15 10° N
Lacrosse 5 3.9 05:43:57 13° NW 05:44:44 13° NNW 05:47:03 10° N
S3M 4.0 05:39:45 10° SSW 05:45:58 57° W 05:52:09 10° N
CZ-4C R/B 3.2 05:45:54 25° WNW 05:46:54 27° NW 05:51:52 10° NNE
Meteor 1-10 Rocket 4.1 05:43:31 10° S 05:49:04 82° W 05:54:46 10° N
Okean 1-7 4.0 05:51:29 27° WNW 05:51:29 27° WNW 05:54:29 10° NNW
Cosmos 1553 Rocket 4.1 05:45:24 10° SSW 05:51:21 49° W 05:57:27 10° N
ISS -0.3 05:54:37 10° SSE 05:56:24 14° SE 05:58:10 10° E
USA 81 4.0 05:52:57 10° SSW 05:58:11 67° W 06:03:27 10° N
Radarsat Rocket 4.2 05:55:28 10° NNE 06:02:29 83° WNW 06:08:40 10° SSW
COSMOS 2455 3.4 06:04:36 10° SSW 06:10:31 63° ESE 06:16:29 10° NNE
Gblst 52 Del rocket 4.3 06:07:38 15° WSW 06:12:18 66° NW 06:18:37 10° NE
Cosmos 2082 4.3 06:08:51 10° NNW 06:14:27 61° ENE 06:20:00 10° SSE
Cosmos 1850 Rocket 4.5 06:11:17 10° NW 06:16:11 38° W 06:21:01 10° SSW
Cosmos 1606 3.3 06:12:53 10° SW 06:16:26 34° W 06:20:01 10° NNW
Cosmos 1536 4.3 06:12:38 10° N 06:16:26 41° E 06:20:14 10° SSE
Lacrosse 5 rocket 1.5 06:16:46 10° NNW 06:20:18 58° NE 06:23:52 10° SE
Meteor 1-27 Rocket 3.8 06:16:49 10° SSW 06:22:35 72° W 06:28:29 10° N
Ariane Rocket 3.0 06:17:51 10° NNE 06:22:58 87° ESE 06:28:01 10° SSW
Cosmos 1602 3.7 06:20:46 10° N 06:24:44 77° W 06:28:39 10° S
Cosmos 1300 Rocket 3.5 06:20:32 10° N 06:24:59 87° WSW 06:29:21 10° S
Okean 3 3.9 06:21:04 10° S 06:25:20 70° E 06:29:39 10° NNE
Cosmos 1709 Rocket 3.9 06:19:31 10° N 06:25:39 81° W 06:31:48 10° S
Cosmos 2369 3.7 06:23:06 10° SSW 06:28:41 65° WNW 06:34:19 10° NNE
USA 234 3.9 06:23:42 10° NNE 06:29:34 37° NNW 06:35:25 10° W
SKYMED 2 4.0 06:28:01 10° SSW 06:32:03 38° W 06:36:07 10° NNW
NOSS 3-2 (A) 3.9 06:26:17 10° SSW 06:32:08 66° ESE 06:38:30 10° NE
USA 238 DEB 3.8 06:26:38 10° SW 06:33:31 59° NW 06:40:27 10° NNE
USA 238 3.8 06:26:42 10° SW 06:33:36 60° NW 06:40:33 10° NNE
Cosmos 1782 4.3 06:32:03 10° WSW 06:34:37 16° WNW 06:37:12 10° NNW
Cosmos 2297 Rocket 2.4 06:29:25 10° NNW 06:35:06 80° ENE 06:40:44 10° SSE
Cosmos 1633 3.0 06:36:22 10° NNW 06:39:45 39° W 06:43:06 10° SSW
CSL-04 Debris 4.2 06:35:19 10° NNE 06:40:44 88° WNW 06:46:08 10° SSW
Cosmos 1378 Rocket 3.5 06:36:42 10° SSW 06:41:03 72° W 06:45:24 10° N
Cosmos 1674 Rocket 4.2 06:37:20 10° SW 06:41:22 35° WNW 06:45:27 10° NNW
Cosmos 1331 Rocket 4.3 06:37:01 10° SW 06:41:56 44° WNW 06:46:55 10° N
Cosmos 2278 4.0 06:39:00 10° SW 06:44:22 45° WNW 06:49:47 10° N
Cosmos 2315 Rocket 4.2 06:38:12 10° SSW 06:44:24 53° W 06:50:36 10° N
Cosmos 1486 Rocket 4.3 06:39:45 10° NNW 06:45:00 74° ENE 06:50:11 10° SSE
SJ-12 4.1 06:42:18 10° NNE 06:46:26 79° E 06:50:33 10° S
Tiangong 1 2.3 06:44:15 10° NW 06:46:53 30° NNE 06:49:33 10° ENE
IRS-1A Rocket 4.4 06:45:54 10° NNE 06:51:29 85° ESE 06:56:58 10° SSW
ATLAS 3B R/B 3.6 06:44:53 10° WSW 06:51:30 32° NW 06:57:58 10° NNE
SL-24 R/B - RUBIN 2 4.2 06:46:02 10° NW 06:52:00 74° WSW 06:57:11 10° SSE
IDEFIX/ARIANE 42P 2.7 06:47:18 10° NNE 06:52:32 89° ESE 06:57:43 10° SSW
